ROMMA est une association bénévole à but non lucratif. Votre soutien est indispensable : ADHERER à ROMMA ou FAIRE un DON

Briord - (01, Ain)

Bugey (281 m)   Longitude: 05° 29' 13" E   Latitude: 45° 46' 37" N Station partenaire n°15
 

Détail journalier du     <<     >>

Température Precipitation Humidité Pression Vent Dir Rafale Dir. rafale Ensol.
Heure (°C) (mm) (%) (hPa) (km/h) (km/h) (min)
01:00 10.5078102306SSE0
02:00 9.6081102303ESE0
03:00 9.2083102305ESE0
04:00 9.4082102305E0
05:00 8.3086102303SSE0
06:00 7.7086102302SE0
07:00 7.3086102400---0
08:00 8.4088102502ESE5
09:00 14.1075102500---55
10:00 16.2069102603NO60
11:00 18.705310263ONO11O60
12:00 19.605110264O19OSO60
13:00 20.804610253O15ONO60
14:00 22.504610256ONO18ONO60
15:00 23.403710244SSO19S60
16:00 24.303210245O19OSO60
17:00 25.204110234O24O60
18:00 25.103210234ONO16NNO60
19:00 24.303610232NO15NO60
20:00 22.604010243NO16NO60
21:00 18.905410241NNE13N5
22:00 17.3055102405NE0
23:00 14.3066102503NNE0
minuit 13.3070102502SSO0

Graphique du 19-04-2019

 

Serveur OMMA